Index of /20260507/WXO-DD/model_caps/3km/00/003
Name Last modified Size Description
Parent Directory -
20260507T00Z_MSC_CAPS_AbsoluteVorticity_IsbL-0250_RLatLon0.03_PT003H.grib2 2026-05-07 06:07 1.1M
20260507T00Z_MSC_CAPS_AbsoluteVorticity_IsbL-0500_RLatLon0.03_PT003H.grib2 2026-05-07 06:07 1.0M
20260507T00Z_MSC_CAPS_AbsoluteVorticity_IsbL-0700_RLatLon0.03_PT003H.grib2 2026-05-07 06:07 1.4M
20260507T00Z_MSC_CAPS_AbsoluteVorticity_IsbL-0850_RLatLon0.03_PT003H.grib2 2026-05-07 06:07 1.2M
20260507T00Z_MSC_CAPS_AbsoluteVorticity_IsbL-1000_RLatLon0.03_PT003H.grib2 2026-05-07 06:07 1.3M
20260507T00Z_MSC_CAPS_AirDensity_AGL-120m_RLatLon0.03_PT003H.grib2 2026-05-07 06:07 1.4M
20260507T00Z_MSC_CAPS_AirDensity_AGL-40m_RLatLon0.03_PT003H.grib2 2026-05-07 06:07 1.4M
20260507T00Z_MSC_CAPS_AirDensity_AGL-80m_RLatLon0.03_PT003H.grib2 2026-05-07 06:07 1.4M
20260507T00Z_MSC_CAPS_AirTemp_AGL-120m_RLatLon0.03_PT003H.grib2 2026-05-07 06:07 1.7M
20260507T00Z_MSC_CAPS_AirTemp_AGL-2m_RLatLon0.03_PT003H.grib2 2026-05-07 06:07 1.8M
20260507T00Z_MSC_CAPS_AirTemp_AGL-40m_RLatLon0.03_PT003H.grib2 2026-05-07 06:07 1.8M
20260507T00Z_MSC_CAPS_AirTemp_AGL-80m_RLatLon0.03_PT003H.grib2 2026-05-07 06:07 1.8M
20260507T00Z_MSC_CAPS_AirTemp_IsbL-0050_RLatLon0.03_PT003H.grib2 2026-05-07 06:07 698K
20260507T00Z_MSC_CAPS_AirTemp_IsbL-0100_RLatLon0.03_PT003H.grib2 2026-05-07 06:07 939K
20260507T00Z_MSC_CAPS_AirTemp_IsbL-0150_RLatLon0.03_PT003H.grib2 2026-05-07 06:07 738K
20260507T00Z_MSC_CAPS_AirTemp_IsbL-0175_RLatLon0.03_PT003H.grib2 2026-05-07 06:07 768K
20260507T00Z_MSC_CAPS_AirTemp_IsbL-0200_RLatLon0.03_PT003H.grib2 2026-05-07 06:07 796K
20260507T00Z_MSC_CAPS_AirTemp_IsbL-0225_RLatLon0.03_PT003H.grib2 2026-05-07 06:07 796K
20260507T00Z_MSC_CAPS_AirTemp_IsbL-0250_RLatLon0.03_PT003H.grib2 2026-05-07 06:07 1.0M
20260507T00Z_MSC_CAPS_AirTemp_IsbL-0275_RLatLon0.03_PT003H.grib2 2026-05-07 06:07 1.0M
20260507T00Z_MSC_CAPS_AirTemp_IsbL-0300_RLatLon0.03_PT003H.grib2 2026-05-07 06:07 1.0M
20260507T00Z_MSC_CAPS_AirTemp_IsbL-0350_RLatLon0.03_PT003H.grib2 2026-05-07 06:07 753K
20260507T00Z_MSC_CAPS_AirTemp_IsbL-0400_RLatLon0.03_PT003H.grib2 2026-05-07 06:07 755K
20260507T00Z_MSC_CAPS_AirTemp_IsbL-0450_RLatLon0.03_PT003H.grib2 2026-05-07 06:07 769K
20260507T00Z_MSC_CAPS_AirTemp_IsbL-0500_RLatLon0.03_PT003H.grib2 2026-05-07 06:07 781K
20260507T00Z_MSC_CAPS_AirTemp_IsbL-0550_RLatLon0.03_PT003H.grib2 2026-05-07 06:07 793K
20260507T00Z_MSC_CAPS_AirTemp_IsbL-0600_RLatLon0.03_PT003H.grib2 2026-05-07 06:07 807K
20260507T00Z_MSC_CAPS_AirTemp_IsbL-0650_RLatLon0.03_PT003H.grib2 2026-05-07 06:07 831K
20260507T00Z_MSC_CAPS_AirTemp_IsbL-0700_RLatLon0.03_PT003H.grib2 2026-05-07 06:07 1.0M
20260507T00Z_MSC_CAPS_AirTemp_IsbL-0750_RLatLon0.03_PT003H.grib2 2026-05-07 06:07 1.0M
20260507T00Z_MSC_CAPS_AirTemp_IsbL-0800_RLatLon0.03_PT003H.grib2 2026-05-07 06:07 1.1M
20260507T00Z_MSC_CAPS_AirTemp_IsbL-0850_RLatLon0.03_PT003H.grib2 2026-05-07 06:07 1.1M
20260507T00Z_MSC_CAPS_AirTemp_IsbL-0875_RLatLon0.03_PT003H.grib2 2026-05-07 06:07 1.1M
20260507T00Z_MSC_CAPS_AirTemp_IsbL-0900_RLatLon0.03_PT003H.grib2 2026-05-07 06:07 1.1M
20260507T00Z_MSC_CAPS_AirTemp_IsbL-0925_RLatLon0.03_PT003H.grib2 2026-05-07 06:07 1.1M
20260507T00Z_MSC_CAPS_AirTemp_IsbL-0950_RLatLon0.03_PT003H.grib2 2026-05-07 06:07 1.0M
20260507T00Z_MSC_CAPS_AirTemp_IsbL-0970_RLatLon0.03_PT003H.grib2 2026-05-07 06:07 1.1M
20260507T00Z_MSC_CAPS_AirTemp_IsbL-0985_RLatLon0.03_PT003H.grib2 2026-05-07 06:07 1.1M
20260507T00Z_MSC_CAPS_AirTemp_IsbL-1000_RLatLon0.03_PT003H.grib2 2026-05-07 06:07 1.1M
20260507T00Z_MSC_CAPS_AirTemp_IsbL-1015_RLatLon0.03_PT003H.grib2 2026-05-07 06:07 1.0M
20260507T00Z_MSC_CAPS_Albedo_Sfc_RLatLon0.03_PT003H.grib2 2026-05-07 06:07 2.7M
20260507T00Z_MSC_CAPS_CAPE_Sfc_RLatLon0.03_PT003H.grib2 2026-05-07 06:07 211K
20260507T00Z_MSC_CAPS_CloudWater_EAtm_RLatLon0.03_PT003H.grib2 2026-05-07 06:07 1.4M
20260507T00Z_MSC_CAPS_ConvectivePrecip-Accum_Sfc_RLatLon0.03_PT003H.grib2 2026-05-07 06:07 1.7M
20260507T00Z_MSC_CAPS_DewPointDepression_AGL-120m_RLatLon0.03_PT003H.grib2 2026-05-07 06:07 2.0M
20260507T00Z_MSC_CAPS_DewPointDepression_AGL-2m_RLatLon0.03_PT003H.grib2 2026-05-07 06:07 2.2M
20260507T00Z_MSC_CAPS_DewPointDepression_AGL-40m_RLatLon0.03_PT003H.grib2 2026-05-07 06:07 2.1M
20260507T00Z_MSC_CAPS_DewPointDepression_AGL-80m_RLatLon0.03_PT003H.grib2 2026-05-07 06:07 2.1M
20260507T00Z_MSC_CAPS_DewPointDepression_IsbL-0050_RLatLon0.03_PT003H.grib2 2026-05-07 06:07 3.0K
20260507T00Z_MSC_CAPS_DewPointDepression_IsbL-0100_RLatLon0.03_PT003H.grib2 2026-05-07 06:07 49K
20260507T00Z_MSC_CAPS_DewPointDepression_IsbL-0150_RLatLon0.03_PT003H.grib2 2026-05-07 06:07 47K
20260507T00Z_MSC_CAPS_DewPointDepression_IsbL-0175_RLatLon0.03_PT003H.grib2 2026-05-07 06:07 193K
20260507T00Z_MSC_CAPS_DewPointDepression_IsbL-0200_RLatLon0.03_PT003H.grib2 2026-05-07 06:07 390K
20260507T00Z_MSC_CAPS_DewPointDepression_IsbL-0225_RLatLon0.03_PT003H.grib2 2026-05-07 06:07 562K
20260507T00Z_MSC_CAPS_DewPointDepression_IsbL-0250_RLatLon0.03_PT003H.grib2 2026-05-07 06:07 783K
20260507T00Z_MSC_CAPS_DewPointDepression_IsbL-0275_RLatLon0.03_PT003H.grib2 2026-05-07 06:07 916K
20260507T00Z_MSC_CAPS_DewPointDepression_IsbL-0300_RLatLon0.03_PT003H.grib2 2026-05-07 06:07 1.0M
20260507T00Z_MSC_CAPS_DewPointDepression_IsbL-0350_RLatLon0.03_PT003H.grib2 2026-05-07 06:07 1.0M
20260507T00Z_MSC_CAPS_DewPointDepression_IsbL-0400_RLatLon0.03_PT003H.grib2 2026-05-07 06:07 1.0M
20260507T00Z_MSC_CAPS_DewPointDepression_IsbL-0450_RLatLon0.03_PT003H.grib2 2026-05-07 06:07 1.1M
20260507T00Z_MSC_CAPS_DewPointDepression_IsbL-0500_RLatLon0.03_PT003H.grib2 2026-05-07 06:07 1.1M
20260507T00Z_MSC_CAPS_DewPointDepression_IsbL-0550_RLatLon0.03_PT003H.grib2 2026-05-07 06:07 1.1M
20260507T00Z_MSC_CAPS_DewPointDepression_IsbL-0600_RLatLon0.03_PT003H.grib2 2026-05-07 06:07 1.1M
20260507T00Z_MSC_CAPS_DewPointDepression_IsbL-0650_RLatLon0.03_PT003H.grib2 2026-05-07 06:07 1.1M
20260507T00Z_MSC_CAPS_DewPointDepression_IsbL-0700_RLatLon0.03_PT003H.grib2 2026-05-07 06:07 1.2M
20260507T00Z_MSC_CAPS_DewPointDepression_IsbL-0750_RLatLon0.03_PT003H.grib2 2026-05-07 06:07 1.2M
20260507T00Z_MSC_CAPS_DewPointDepression_IsbL-0800_RLatLon0.03_PT003H.grib2 2026-05-07 06:07 1.3M
20260507T00Z_MSC_CAPS_DewPointDepression_IsbL-0850_RLatLon0.03_PT003H.grib2 2026-05-07 06:07 1.3M
20260507T00Z_MSC_CAPS_DewPointDepression_IsbL-0875_RLatLon0.03_PT003H.grib2 2026-05-07 06:07 1.3M
20260507T00Z_MSC_CAPS_DewPointDepression_IsbL-0900_RLatLon0.03_PT003H.grib2 2026-05-07 06:07 1.3M
20260507T00Z_MSC_CAPS_DewPointDepression_IsbL-0925_RLatLon0.03_PT003H.grib2 2026-05-07 06:07 1.3M
20260507T00Z_MSC_CAPS_DewPointDepression_IsbL-0950_RLatLon0.03_PT003H.grib2 2026-05-07 06:07 1.4M
20260507T00Z_MSC_CAPS_DewPointDepression_IsbL-0970_RLatLon0.03_PT003H.grib2 2026-05-07 06:07 1.4M
20260507T00Z_MSC_CAPS_DewPointDepression_IsbL-0985_RLatLon0.03_PT003H.grib2 2026-05-07 06:07 1.4M
20260507T00Z_MSC_CAPS_DewPointDepression_IsbL-1000_RLatLon0.03_PT003H.grib2 2026-05-07 06:07 1.4M
20260507T00Z_MSC_CAPS_DewPointDepression_IsbL-1015_RLatLon0.03_PT003H.grib2 2026-05-07 06:07 1.3M
20260507T00Z_MSC_CAPS_DewPoint_AGL-120m_RLatLon0.03_PT003H.grib2 2026-05-07 06:07 3.6M
20260507T00Z_MSC_CAPS_DewPoint_AGL-2m_RLatLon0.03_PT003H.grib2 2026-05-07 06:07 1.8M
20260507T00Z_MSC_CAPS_DewPoint_AGL-40m_RLatLon0.03_PT003H.grib2 2026-05-07 06:07 3.7M
20260507T00Z_MSC_CAPS_DewPoint_AGL-80m_RLatLon0.03_PT003H.grib2 2026-05-07 06:07 3.6M
20260507T00Z_MSC_CAPS_DownwardLongwaveRadiationFlux-Accum_Sfc_RLatLon0.03_PT003H.grib2 2026-05-07 06:07 2.7M
20260507T00Z_MSC_CAPS_DownwardShortwaveRadiationFlux-Accum_NTAtm_RLatLon0.03_PT003H.grib2 2026-05-07 06:07 384K
20260507T00Z_MSC_CAPS_DownwardShortwaveRadiationFlux-Accum_Sfc_RLatLon0.03_PT003H.grib2 2026-05-07 06:07 1.7M
20260507T00Z_MSC_CAPS_FreezingRain-Accum_Sfc_RLatLon0.03_PT003H.grib2 2026-05-07 06:07 109K
20260507T00Z_MSC_CAPS_GeopotentialHeight_IsbL-0050_RLatLon0.03_PT003H.grib2 2026-05-07 06:07 831K
20260507T00Z_MSC_CAPS_GeopotentialHeight_IsbL-0100_RLatLon0.03_PT003H.grib2 2026-05-07 06:07 738K
20260507T00Z_MSC_CAPS_GeopotentialHeight_IsbL-0150_RLatLon0.03_PT003H.grib2 2026-05-07 06:07 605K
20260507T00Z_MSC_CAPS_GeopotentialHeight_IsbL-0175_RLatLon0.03_PT003H.grib2 2026-05-07 06:07 719K
20260507T00Z_MSC_CAPS_GeopotentialHeight_IsbL-0200_RLatLon0.03_PT003H.grib2 2026-05-07 06:07 739K
20260507T00Z_MSC_CAPS_GeopotentialHeight_IsbL-0225_RLatLon0.03_PT003H.grib2 2026-05-07 06:07 752K
20260507T00Z_MSC_CAPS_GeopotentialHeight_IsbL-0250_RLatLon0.03_PT003H.grib2 2026-05-07 06:07 762K
20260507T00Z_MSC_CAPS_GeopotentialHeight_IsbL-0275_RLatLon0.03_PT003H.grib2 2026-05-07 06:07 768K
20260507T00Z_MSC_CAPS_GeopotentialHeight_IsbL-0300_RLatLon0.03_PT003H.grib2 2026-05-07 06:07 775K
20260507T00Z_MSC_CAPS_GeopotentialHeight_IsbL-0350_RLatLon0.03_PT003H.grib2 2026-05-07 06:07 779K
20260507T00Z_MSC_CAPS_GeopotentialHeight_IsbL-0400_RLatLon0.03_PT003H.grib2 2026-05-07 06:07 773K
20260507T00Z_MSC_CAPS_GeopotentialHeight_IsbL-0450_RLatLon0.03_PT003H.grib2 2026-05-07 06:07 766K
20260507T00Z_MSC_CAPS_GeopotentialHeight_IsbL-0500_RLatLon0.03_PT003H.grib2 2026-05-07 06:07 757K
20260507T00Z_MSC_CAPS_GeopotentialHeight_IsbL-0550_RLatLon0.03_PT003H.grib2 2026-05-07 06:07 747K
20260507T00Z_MSC_CAPS_GeopotentialHeight_IsbL-0600_RLatLon0.03_PT003H.grib2 2026-05-07 06:07 634K
20260507T00Z_MSC_CAPS_GeopotentialHeight_IsbL-0650_RLatLon0.03_PT003H.grib2 2026-05-07 06:07 633K
20260507T00Z_MSC_CAPS_GeopotentialHeight_IsbL-0700_RLatLon0.03_PT003H.grib2 2026-05-07 06:07 808K
20260507T00Z_MSC_CAPS_GeopotentialHeight_IsbL-0750_RLatLon0.03_PT003H.grib2 2026-05-07 06:07 809K
20260507T00Z_MSC_CAPS_GeopotentialHeight_IsbL-0800_RLatLon0.03_PT003H.grib2 2026-05-07 06:07 812K
20260507T00Z_MSC_CAPS_GeopotentialHeight_IsbL-0850_RLatLon0.03_PT003H.grib2 2026-05-07 06:07 895K
20260507T00Z_MSC_CAPS_GeopotentialHeight_IsbL-0875_RLatLon0.03_PT003H.grib2 2026-05-07 06:07 819K
20260507T00Z_MSC_CAPS_GeopotentialHeight_IsbL-0900_RLatLon0.03_PT003H.grib2 2026-05-07 06:07 826K
20260507T00Z_MSC_CAPS_GeopotentialHeight_IsbL-0925_RLatLon0.03_PT003H.grib2 2026-05-07 06:07 834K
20260507T00Z_MSC_CAPS_GeopotentialHeight_IsbL-0950_RLatLon0.03_PT003H.grib2 2026-05-07 06:07 847K
20260507T00Z_MSC_CAPS_GeopotentialHeight_IsbL-0970_RLatLon0.03_PT003H.grib2 2026-05-07 06:07 857K
20260507T00Z_MSC_CAPS_GeopotentialHeight_IsbL-0985_RLatLon0.03_PT003H.grib2 2026-05-07 06:07 863K
20260507T00Z_MSC_CAPS_GeopotentialHeight_IsbL-1000_RLatLon0.03_PT003H.grib2 2026-05-07 06:07 872K
20260507T00Z_MSC_CAPS_GeopotentialHeight_IsbL-1015_RLatLon0.03_PT003H.grib2 2026-05-07 06:07 884K
20260507T00Z_MSC_CAPS_GeopotentialHeight_Sfc_RLatLon0.03_PT003H.grib2 2026-05-07 06:07 1.0M
20260507T00Z_MSC_CAPS_IcePellets-Accum_Sfc_RLatLon0.03_PT003H.grib2 2026-05-07 06:07 2.0K
20260507T00Z_MSC_CAPS_LatentHeatNetFlux_Sfc_RLatLon0.03_PT003H.grib2 2026-05-07 06:07 1.9M
20260507T00Z_MSC_CAPS_LiftedIndex-MU-VT_IsbL-0500_RLatLon0.03_PT003H.grib2 2026-05-07 06:07 3.3M
20260507T00Z_MSC_CAPS_MixedLayerThickness_Sfc_RLatLon0.03_PT003H.nc 2026-05-07 06:12 16M
20260507T00Z_MSC_CAPS_NetLongwaveRadiationFlux-Accum_Sfc_RLatLon0.03_PT003H.grib2 2026-05-07 06:07 3.0M
20260507T00Z_MSC_CAPS_NetShortwaveRadiationFlux-Accum_Sfc_RLatLon0.03_PT003H.grib2 2026-05-07 06:07 1.8M
20260507T00Z_MSC_CAPS_PlanetaryBoundaryLayerHeight_Sfc_RLatLon0.03_PT003H.grib2 2026-05-07 06:07 2.9M
20260507T00Z_MSC_CAPS_Precip-Accum_Sfc_RLatLon0.03_PT003H.grib2 2026-05-07 06:07 2.6M
20260507T00Z_MSC_CAPS_PrecipRate_Sfc_RLatLon0.03_PT003H.grib2 2026-05-07 06:07 279K
20260507T00Z_MSC_CAPS_PrecipType-Instant_Sfc_RLatLon0.03_PT003H.grib2 2026-05-07 06:07 1.5M
20260507T00Z_MSC_CAPS_Pressure_MSL_RLatLon0.03_PT003H.grib2 2026-05-07 06:07 760K
20260507T00Z_MSC_CAPS_Pressure_Sfc_RLatLon0.03_PT003H.grib2 2026-05-07 06:07 1.2M
20260507T00Z_MSC_CAPS_RadiativeTemp_Sfc_RLatLon0.03_PT003H.grib2 2026-05-07 06:07 2.1M
20260507T00Z_MSC_CAPS_Rain-Accum_Sfc_RLatLon0.03_PT003H.grib2 2026-05-07 06:07 1.0M
20260507T00Z_MSC_CAPS_RelativeHumidity_AGL-120m_RLatLon0.03_PT003H.grib2 2026-05-07 06:07 2.8M
20260507T00Z_MSC_CAPS_RelativeHumidity_AGL-2m_RLatLon0.03_PT003H.grib2 2026-05-07 06:07 2.9M
20260507T00Z_MSC_CAPS_RelativeHumidity_AGL-40m_RLatLon0.03_PT003H.grib2 2026-05-07 06:07 2.8M
20260507T00Z_MSC_CAPS_RelativeHumidity_AGL-80m_RLatLon0.03_PT003H.grib2 2026-05-07 06:07 2.8M
20260507T00Z_MSC_CAPS_RelativeHumidity_IsbL-0050_RLatLon0.03_PT003H.grib2 2026-05-07 06:07 705K
20260507T00Z_MSC_CAPS_RelativeHumidity_IsbL-0100_RLatLon0.03_PT003H.grib2 2026-05-07 06:07 824K
20260507T00Z_MSC_CAPS_RelativeHumidity_IsbL-0150_RLatLon0.03_PT003H.grib2 2026-05-07 06:07 453K
20260507T00Z_MSC_CAPS_RelativeHumidity_IsbL-0175_RLatLon0.03_PT003H.grib2 2026-05-07 06:07 448K
20260507T00Z_MSC_CAPS_RelativeHumidity_IsbL-0200_RLatLon0.03_PT003H.grib2 2026-05-07 06:07 630K
20260507T00Z_MSC_CAPS_RelativeHumidity_IsbL-0225_RLatLon0.03_PT003H.grib2 2026-05-07 06:07 861K
20260507T00Z_MSC_CAPS_RelativeHumidity_IsbL-0250_RLatLon0.03_PT003H.grib2 2026-05-07 06:07 1.1M
20260507T00Z_MSC_CAPS_RelativeHumidity_IsbL-0275_RLatLon0.03_PT003H.grib2 2026-05-07 06:07 1.3M
20260507T00Z_MSC_CAPS_RelativeHumidity_IsbL-0300_RLatLon0.03_PT003H.grib2 2026-05-07 06:07 1.6M
20260507T00Z_MSC_CAPS_RelativeHumidity_IsbL-0350_RLatLon0.03_PT003H.grib2 2026-05-07 06:07 1.9M
20260507T00Z_MSC_CAPS_RelativeHumidity_IsbL-0400_RLatLon0.03_PT003H.grib2 2026-05-07 06:07 2.0M
20260507T00Z_MSC_CAPS_RelativeHumidity_IsbL-0450_RLatLon0.03_PT003H.grib2 2026-05-07 06:07 1.9M
20260507T00Z_MSC_CAPS_RelativeHumidity_IsbL-0500_RLatLon0.03_PT003H.grib2 2026-05-07 06:07 2.0M
20260507T00Z_MSC_CAPS_RelativeHumidity_IsbL-0550_RLatLon0.03_PT003H.grib2 2026-05-07 06:07 1.9M
20260507T00Z_MSC_CAPS_RelativeHumidity_IsbL-0600_RLatLon0.03_PT003H.grib2 2026-05-07 06:07 1.9M
20260507T00Z_MSC_CAPS_RelativeHumidity_IsbL-0650_RLatLon0.03_PT003H.grib2 2026-05-07 06:07 2.1M
20260507T00Z_MSC_CAPS_RelativeHumidity_IsbL-0700_RLatLon0.03_PT003H.grib2 2026-05-07 06:07 2.2M
20260507T00Z_MSC_CAPS_RelativeHumidity_IsbL-0750_RLatLon0.03_PT003H.grib2 2026-05-07 06:07 2.2M
20260507T00Z_MSC_CAPS_RelativeHumidity_IsbL-0800_RLatLon0.03_PT003H.grib2 2026-05-07 06:07 2.4M
20260507T00Z_MSC_CAPS_RelativeHumidity_IsbL-0850_RLatLon0.03_PT003H.grib2 2026-05-07 06:07 2.4M
20260507T00Z_MSC_CAPS_RelativeHumidity_IsbL-0875_RLatLon0.03_PT003H.grib2 2026-05-07 06:07 2.6M
20260507T00Z_MSC_CAPS_RelativeHumidity_IsbL-0900_RLatLon0.03_PT003H.grib2 2026-05-07 06:07 2.6M
20260507T00Z_MSC_CAPS_RelativeHumidity_IsbL-0925_RLatLon0.03_PT003H.grib2 2026-05-07 06:07 2.7M
20260507T00Z_MSC_CAPS_RelativeHumidity_IsbL-0950_RLatLon0.03_PT003H.grib2 2026-05-07 06:07 2.7M
20260507T00Z_MSC_CAPS_RelativeHumidity_IsbL-0970_RLatLon0.03_PT003H.grib2 2026-05-07 06:07 2.8M
20260507T00Z_MSC_CAPS_RelativeHumidity_IsbL-0985_RLatLon0.03_PT003H.grib2 2026-05-07 06:07 2.9M
20260507T00Z_MSC_CAPS_RelativeHumidity_IsbL-1000_RLatLon0.03_PT003H.grib2 2026-05-07 06:07 2.9M
20260507T00Z_MSC_CAPS_RelativeHumidity_IsbL-1015_RLatLon0.03_PT003H.grib2 2026-05-07 06:07 2.9M
20260507T00Z_MSC_CAPS_Runoff-Accum_Sfc_RLatLon0.03_PT003H.grib2 2026-05-07 06:07 226K
20260507T00Z_MSC_CAPS_SeaIceAreaFraction_Sfc_RLatLon0.03_PT003H.nc 2026-05-07 06:12 15M
20260507T00Z_MSC_CAPS_SeaIceCompressiveStrength_Sfc_RLatLon0.03_PT003H.nc 2026-05-07 06:12 15M
20260507T00Z_MSC_CAPS_SeaIceDivergence_Sfc_RLatLon0.03_PT003H.nc 2026-05-07 06:12 15M
20260507T00Z_MSC_CAPS_SeaIceInternalPressure_Sfc_RLatLon0.03_PT003H.nc 2026-05-07 06:12 15M
20260507T00Z_MSC_CAPS_SeaIceShear_Sfc_RLatLon0.03_PT003H.nc 2026-05-07 06:12 14M
20260507T00Z_MSC_CAPS_SeaIceSnowTemp_Sfc_RLatLon0.03_PT003H.nc 2026-05-07 06:12 14M
20260507T00Z_MSC_CAPS_SeaIceSnowVolume_Sfc_RLatLon0.03_PT003H.nc 2026-05-07 06:12 15M
20260507T00Z_MSC_CAPS_SeaIceVelocityX_Sfc_RLatLon0.03_PT003H.nc 2026-05-07 06:12 15M
20260507T00Z_MSC_CAPS_SeaIceVelocityY_Sfc_RLatLon0.03_PT003H.nc 2026-05-07 06:12 15M
20260507T00Z_MSC_CAPS_SeaIceVolume_Sfc_RLatLon0.03_PT003H.nc 2026-05-07 06:12 15M
20260507T00Z_MSC_CAPS_SeaSurfaceHeight_Sfc_RLatLon0.03_PT003H.nc 2026-05-07 06:12 16M
20260507T00Z_MSC_CAPS_SeaWaterSalinity_DBS-0.5m_RLatLon0.03_PT003H.nc 2026-05-07 06:12 16M
20260507T00Z_MSC_CAPS_SeaWaterSalinity_DBS-all_RLatLon0.03_PT003H.nc 2026-05-07 06:12 107M
20260507T00Z_MSC_CAPS_SeaWaterTemp_DBS-0.5m_RLatLon0.03_PT003H.nc 2026-05-07 06:12 15M
20260507T00Z_MSC_CAPS_SeaWaterTemp_DBS-all_RLatLon0.03_PT003H.nc 2026-05-07 06:12 88M
20260507T00Z_MSC_CAPS_SeaWaterVelocityX_DBS-0.5m_RLatLon0.03_PT003H.nc 2026-05-07 06:12 17M
20260507T00Z_MSC_CAPS_SeaWaterVelocityX_DBS-all_RLatLon0.03_PT003H.nc 2026-05-07 06:12 210M
20260507T00Z_MSC_CAPS_SeaWaterVelocityY_DBS-0.5m_RLatLon0.03_PT003H.nc 2026-05-07 06:12 18M
20260507T00Z_MSC_CAPS_SeaWaterVelocityY_DBS-all_RLatLon0.03_PT003H.nc 2026-05-07 06:12 215M
20260507T00Z_MSC_CAPS_SensibleHeatNetFlux_Sfc_RLatLon0.03_PT003H.grib2 2026-05-07 06:07 2.1M
20260507T00Z_MSC_CAPS_ShowalterIndex_IsbL-0500_RLatLon0.03_PT003H.grib2 2026-05-07 06:07 4.3M
20260507T00Z_MSC_CAPS_Snow-Accum_Sfc_RLatLon0.03_PT003H.grib2 2026-05-07 06:07 1.9M
20260507T00Z_MSC_CAPS_SnowDensity_Sfc_RLatLon0.03_PT003H.grib2 2026-05-07 06:07 1.1M
20260507T00Z_MSC_CAPS_SnowDepthWaterEquivalent_Sfc_RLatLon0.03_PT003H.grib2 2026-05-07 06:07 641K
20260507T00Z_MSC_CAPS_SnowDepth_Sfc_RLatLon0.03_PT003H.grib2 2026-05-07 06:07 1.1M
20260507T00Z_MSC_CAPS_SoilTemp_DBS-0to10cm_RLatLon0.03_PT003H.grib2 2026-05-07 06:07 1.2M
20260507T00Z_MSC_CAPS_SoilTemp_Sfc_RLatLon0.03_PT003H.grib2 2026-05-07 06:07 1.8M
20260507T00Z_MSC_CAPS_SoilVolumetricIceContent_Sfc_RLatLon0.03_PT003H.grib2 2026-05-07 06:07 1.3M
20260507T00Z_MSC_CAPS_SoilVolumetricWaterContent_DBS-0to10cm_RLatLon0.03_PT003H.grib2 2026-05-07 06:07 1.3M
20260507T00Z_MSC_CAPS_SoilVolumetricWaterContent_DBS-0to1cm_RLatLon0.03_PT003H.grib2 2026-05-07 06:07 1.7M
20260507T00Z_MSC_CAPS_SpecificHumidity_AGL-120m_RLatLon0.03_PT003H.grib2 2026-05-07 06:07 1.7M
20260507T00Z_MSC_CAPS_SpecificHumidity_AGL-2m_RLatLon0.03_PT003H.grib2 2026-05-07 06:07 2.1M
20260507T00Z_MSC_CAPS_SpecificHumidity_AGL-40m_RLatLon0.03_PT003H.grib2 2026-05-07 06:07 1.8M
20260507T00Z_MSC_CAPS_SpecificHumidity_AGL-80m_RLatLon0.03_PT003H.grib2 2026-05-07 06:07 1.8M
20260507T00Z_MSC_CAPS_SpecificHumidity_IsbL-0050_RLatLon0.03_PT003H.grib2 2026-05-07 06:07 863K
20260507T00Z_MSC_CAPS_SpecificHumidity_IsbL-0100_RLatLon0.03_PT003H.grib2 2026-05-07 06:07 1.1M
20260507T00Z_MSC_CAPS_SpecificHumidity_IsbL-0150_RLatLon0.03_PT003H.grib2 2026-05-07 06:07 728K
20260507T00Z_MSC_CAPS_SpecificHumidity_IsbL-0175_RLatLon0.03_PT003H.grib2 2026-05-07 06:07 950K
20260507T00Z_MSC_CAPS_SpecificHumidity_IsbL-0200_RLatLon0.03_PT003H.grib2 2026-05-07 06:07 828K
20260507T00Z_MSC_CAPS_SpecificHumidity_IsbL-0225_RLatLon0.03_PT003H.grib2 2026-05-07 06:07 800K
20260507T00Z_MSC_CAPS_SpecificHumidity_IsbL-0250_RLatLon0.03_PT003H.grib2 2026-05-07 06:07 799K
20260507T00Z_MSC_CAPS_SpecificHumidity_IsbL-0275_RLatLon0.03_PT003H.grib2 2026-05-07 06:07 1.0M
20260507T00Z_MSC_CAPS_SpecificHumidity_IsbL-0300_RLatLon0.03_PT003H.grib2 2026-05-07 06:07 1.0M
20260507T00Z_MSC_CAPS_SpecificHumidity_IsbL-0350_RLatLon0.03_PT003H.grib2 2026-05-07 06:07 932K
20260507T00Z_MSC_CAPS_SpecificHumidity_IsbL-0400_RLatLon0.03_PT003H.grib2 2026-05-07 06:07 930K
20260507T00Z_MSC_CAPS_SpecificHumidity_IsbL-0450_RLatLon0.03_PT003H.grib2 2026-05-07 06:07 1.0M
20260507T00Z_MSC_CAPS_SpecificHumidity_IsbL-0500_RLatLon0.03_PT003H.grib2 2026-05-07 06:07 1.0M
20260507T00Z_MSC_CAPS_SpecificHumidity_IsbL-0550_RLatLon0.03_PT003H.grib2 2026-05-07 06:07 1.1M
20260507T00Z_MSC_CAPS_SpecificHumidity_IsbL-0600_RLatLon0.03_PT003H.grib2 2026-05-07 06:07 1.2M
20260507T00Z_MSC_CAPS_SpecificHumidity_IsbL-0650_RLatLon0.03_PT003H.grib2 2026-05-07 06:07 1.5M
20260507T00Z_MSC_CAPS_SpecificHumidity_IsbL-0700_RLatLon0.03_PT003H.grib2 2026-05-07 06:07 1.5M
20260507T00Z_MSC_CAPS_SpecificHumidity_IsbL-0750_RLatLon0.03_PT003H.grib2 2026-05-07 06:07 1.3M
20260507T00Z_MSC_CAPS_SpecificHumidity_IsbL-0800_RLatLon0.03_PT003H.grib2 2026-05-07 06:07 1.4M
20260507T00Z_MSC_CAPS_SpecificHumidity_IsbL-0850_RLatLon0.03_PT003H.grib2 2026-05-07 06:07 1.6M
20260507T00Z_MSC_CAPS_SpecificHumidity_IsbL-0875_RLatLon0.03_PT003H.grib2 2026-05-07 06:07 1.7M
20260507T00Z_MSC_CAPS_SpecificHumidity_IsbL-0900_RLatLon0.03_PT003H.grib2 2026-05-07 06:07 1.8M
20260507T00Z_MSC_CAPS_SpecificHumidity_IsbL-0925_RLatLon0.03_PT003H.grib2 2026-05-07 06:07 1.9M
20260507T00Z_MSC_CAPS_SpecificHumidity_IsbL-0950_RLatLon0.03_PT003H.grib2 2026-05-07 06:07 1.9M
20260507T00Z_MSC_CAPS_SpecificHumidity_IsbL-0970_RLatLon0.03_PT003H.grib2 2026-05-07 06:07 2.0M
20260507T00Z_MSC_CAPS_SpecificHumidity_IsbL-0985_RLatLon0.03_PT003H.grib2 2026-05-07 06:07 2.1M
20260507T00Z_MSC_CAPS_SpecificHumidity_IsbL-1000_RLatLon0.03_PT003H.grib2 2026-05-07 06:07 2.1M
20260507T00Z_MSC_CAPS_SpecificHumidity_IsbL-1015_RLatLon0.03_PT003H.grib2 2026-05-07 06:07 2.1M
20260507T00Z_MSC_CAPS_SpecificHumidity_Sfc_RLatLon0.03_PT003H.grib2 2026-05-07 06:07 2.1M
20260507T00Z_MSC_CAPS_StormRelativeHelicity_Sfc_RLatLon0.03_PT003H.grib2 2026-05-07 06:07 3.1M
20260507T00Z_MSC_CAPS_Thickness_IsbL-1000to0500_RLatLon0.03_PT003H.grib2 2026-05-07 06:07 412K
20260507T00Z_MSC_CAPS_TotalCloudCover_Sfc_RLatLon0.03_PT003H.grib2 2026-05-07 06:07 3.5M
20260507T00Z_MSC_CAPS_TurboclineDepth_Sfc_RLatLon0.03_PT003H.nc 2026-05-07 06:12 15M
20260507T00Z_MSC_CAPS_UpwardLongwaveRadiationFlux_NTAtm_RLatLon0.03_PT003H.grib2 2026-05-07 06:07 2.9M
20260507T00Z_MSC_CAPS_UpwardShortwaveRadiationFlux_NTAtm_RLatLon0.03_PT003H.grib2 2026-05-07 06:07 1.9M
20260507T00Z_MSC_CAPS_VerticalVelocity_IsbL-0250_RLatLon0.03_PT003H.grib2 2026-05-07 06:07 916K
20260507T00Z_MSC_CAPS_VerticalVelocity_IsbL-0500_RLatLon0.03_PT003H.grib2 2026-05-07 06:07 1.2M
20260507T00Z_MSC_CAPS_VerticalVelocity_IsbL-0700_RLatLon0.03_PT003H.grib2 2026-05-07 06:07 953K
20260507T00Z_MSC_CAPS_VerticalVelocity_IsbL-0850_RLatLon0.03_PT003H.grib2 2026-05-07 06:07 1.4M
20260507T00Z_MSC_CAPS_VerticalVelocity_IsbL-1000_RLatLon0.03_PT003H.grib2 2026-05-07 06:07 1.3M
20260507T00Z_MSC_CAPS_WindDir_AGL-10m_RLatLon0.03_PT003H.grib2 2026-05-07 06:07 2.4M
20260507T00Z_MSC_CAPS_WindDir_AGL-120m_RLatLon0.03_PT003H.grib2 2026-05-07 06:07 1.2M
20260507T00Z_MSC_CAPS_WindDir_AGL-40m_RLatLon0.03_PT003H.grib2 2026-05-07 06:07 1.3M
20260507T00Z_MSC_CAPS_WindDir_AGL-80m_RLatLon0.03_PT003H.grib2 2026-05-07 06:07 1.2M
20260507T00Z_MSC_CAPS_WindDir_IsbL-0050_RLatLon0.03_PT003H.grib2 2026-05-07 06:07 1.1M
20260507T00Z_MSC_CAPS_WindDir_IsbL-0100_RLatLon0.03_PT003H.grib2 2026-05-07 06:07 1.0M
20260507T00Z_MSC_CAPS_WindDir_IsbL-0150_RLatLon0.03_PT003H.grib2 2026-05-07 06:07 1.0M
20260507T00Z_MSC_CAPS_WindDir_IsbL-0175_RLatLon0.03_PT003H.grib2 2026-05-07 06:07 1.0M
20260507T00Z_MSC_CAPS_WindDir_IsbL-0200_RLatLon0.03_PT003H.grib2 2026-05-07 06:07 1.2M
20260507T00Z_MSC_CAPS_WindDir_IsbL-0225_RLatLon0.03_PT003H.grib2 2026-05-07 06:07 1.1M
20260507T00Z_MSC_CAPS_WindDir_IsbL-0250_RLatLon0.03_PT003H.grib2 2026-05-07 06:07 1.1M
20260507T00Z_MSC_CAPS_WindDir_IsbL-0275_RLatLon0.03_PT003H.grib2 2026-05-07 06:07 1.1M
20260507T00Z_MSC_CAPS_WindDir_IsbL-0300_RLatLon0.03_PT003H.grib2 2026-05-07 06:07 1.1M
20260507T00Z_MSC_CAPS_WindDir_IsbL-0350_RLatLon0.03_PT003H.grib2 2026-05-07 06:07 1.1M
20260507T00Z_MSC_CAPS_WindDir_IsbL-0400_RLatLon0.03_PT003H.grib2 2026-05-07 06:07 1.2M
20260507T00Z_MSC_CAPS_WindDir_IsbL-0450_RLatLon0.03_PT003H.grib2 2026-05-07 06:07 1.2M
20260507T00Z_MSC_CAPS_WindDir_IsbL-0500_RLatLon0.03_PT003H.grib2 2026-05-07 06:07 1.2M
20260507T00Z_MSC_CAPS_WindDir_IsbL-0550_RLatLon0.03_PT003H.grib2 2026-05-07 06:07 1.2M
20260507T00Z_MSC_CAPS_WindDir_IsbL-0600_RLatLon0.03_PT003H.grib2 2026-05-07 06:07 1.2M
20260507T00Z_MSC_CAPS_WindDir_IsbL-0650_RLatLon0.03_PT003H.grib2 2026-05-07 06:07 1.3M
20260507T00Z_MSC_CAPS_WindDir_IsbL-0700_RLatLon0.03_PT003H.grib2 2026-05-07 06:07 1.4M
20260507T00Z_MSC_CAPS_WindDir_IsbL-0750_RLatLon0.03_PT003H.grib2 2026-05-07 06:07 1.6M
20260507T00Z_MSC_CAPS_WindDir_IsbL-0800_RLatLon0.03_PT003H.grib2 2026-05-07 06:07 1.7M
20260507T00Z_MSC_CAPS_WindDir_IsbL-0850_RLatLon0.03_PT003H.grib2 2026-05-07 06:07 1.8M
20260507T00Z_MSC_CAPS_WindDir_IsbL-0875_RLatLon0.03_PT003H.grib2 2026-05-07 06:07 1.8M
20260507T00Z_MSC_CAPS_WindDir_IsbL-0900_RLatLon0.03_PT003H.grib2 2026-05-07 06:07 1.9M
20260507T00Z_MSC_CAPS_WindDir_IsbL-0925_RLatLon0.03_PT003H.grib2 2026-05-07 06:07 1.9M
20260507T00Z_MSC_CAPS_WindDir_IsbL-0950_RLatLon0.03_PT003H.grib2 2026-05-07 06:07 2.0M
20260507T00Z_MSC_CAPS_WindDir_IsbL-0970_RLatLon0.03_PT003H.grib2 2026-05-07 06:07 2.1M
20260507T00Z_MSC_CAPS_WindDir_IsbL-0985_RLatLon0.03_PT003H.grib2 2026-05-07 06:07 2.2M
20260507T00Z_MSC_CAPS_WindDir_IsbL-1000_RLatLon0.03_PT003H.grib2 2026-05-07 06:07 2.2M
20260507T00Z_MSC_CAPS_WindDir_IsbL-1015_RLatLon0.03_PT003H.grib2 2026-05-07 06:07 2.3M
20260507T00Z_MSC_CAPS_WindGust-Max_AGL-10m_RLatLon0.03_PT003H.grib2 2026-05-07 06:07 2.5M
20260507T00Z_MSC_CAPS_WindGust-Min_AGL-10m_RLatLon0.03_PT003H.grib2 2026-05-07 06:07 2.3M
20260507T00Z_MSC_CAPS_WindGust_AGL-10m_RLatLon0.03_PT003H.grib2 2026-05-07 06:07 2.4M
20260507T00Z_MSC_CAPS_WindSpeed_AGL-10m_RLatLon0.03_PT003H.grib2 2026-05-07 06:07 2.1M
20260507T00Z_MSC_CAPS_WindSpeed_AGL-120m_RLatLon0.03_PT003H.grib2 2026-05-07 06:07 1.1M
20260507T00Z_MSC_CAPS_WindSpeed_AGL-40m_RLatLon0.03_PT003H.grib2 2026-05-07 06:07 1.2M
20260507T00Z_MSC_CAPS_WindSpeed_AGL-80m_RLatLon0.03_PT003H.grib2 2026-05-07 06:07 1.1M
20260507T00Z_MSC_CAPS_WindSpeed_IsbL-0050_RLatLon0.03_PT003H.grib2 2026-05-07 06:07 962K
20260507T00Z_MSC_CAPS_WindSpeed_IsbL-0100_RLatLon0.03_PT003H.grib2 2026-05-07 06:07 1.3M
20260507T00Z_MSC_CAPS_WindSpeed_IsbL-0150_RLatLon0.03_PT003H.grib2 2026-05-07 06:07 1.0M
20260507T00Z_MSC_CAPS_WindSpeed_IsbL-0175_RLatLon0.03_PT003H.grib2 2026-05-07 06:07 1.1M
20260507T00Z_MSC_CAPS_WindSpeed_IsbL-0200_RLatLon0.03_PT003H.grib2 2026-05-07 06:07 1.2M
20260507T00Z_MSC_CAPS_WindSpeed_IsbL-0225_RLatLon0.03_PT003H.grib2 2026-05-07 06:07 957K
20260507T00Z_MSC_CAPS_WindSpeed_IsbL-0250_RLatLon0.03_PT003H.grib2 2026-05-07 06:07 1.0M
20260507T00Z_MSC_CAPS_WindSpeed_IsbL-0275_RLatLon0.03_PT003H.grib2 2026-05-07 06:07 1.0M
20260507T00Z_MSC_CAPS_WindSpeed_IsbL-0300_RLatLon0.03_PT003H.grib2 2026-05-07 06:07 1.0M
20260507T00Z_MSC_CAPS_WindSpeed_IsbL-0350_RLatLon0.03_PT003H.grib2 2026-05-07 06:07 1.0M
20260507T00Z_MSC_CAPS_WindSpeed_IsbL-0400_RLatLon0.03_PT003H.grib2 2026-05-07 06:07 1.0M
20260507T00Z_MSC_CAPS_WindSpeed_IsbL-0450_RLatLon0.03_PT003H.grib2 2026-05-07 06:07 1.3M
20260507T00Z_MSC_CAPS_WindSpeed_IsbL-0500_RLatLon0.03_PT003H.grib2 2026-05-07 06:07 1.4M
20260507T00Z_MSC_CAPS_WindSpeed_IsbL-0550_RLatLon0.03_PT003H.grib2 2026-05-07 06:07 1.3M
20260507T00Z_MSC_CAPS_WindSpeed_IsbL-0600_RLatLon0.03_PT003H.grib2 2026-05-07 06:07 1.4M
20260507T00Z_MSC_CAPS_WindSpeed_IsbL-0650_RLatLon0.03_PT003H.grib2 2026-05-07 06:07 1.4M
20260507T00Z_MSC_CAPS_WindSpeed_IsbL-0700_RLatLon0.03_PT003H.grib2 2026-05-07 06:07 1.5M
20260507T00Z_MSC_CAPS_WindSpeed_IsbL-0750_RLatLon0.03_PT003H.grib2 2026-05-07 06:07 1.6M
20260507T00Z_MSC_CAPS_WindSpeed_IsbL-0800_RLatLon0.03_PT003H.grib2 2026-05-07 06:07 1.6M
20260507T00Z_MSC_CAPS_WindSpeed_IsbL-0850_RLatLon0.03_PT003H.grib2 2026-05-07 06:07 1.7M
20260507T00Z_MSC_CAPS_WindSpeed_IsbL-0875_RLatLon0.03_PT003H.grib2 2026-05-07 06:07 1.8M
20260507T00Z_MSC_CAPS_WindSpeed_IsbL-0900_RLatLon0.03_PT003H.grib2 2026-05-07 06:07 1.8M
20260507T00Z_MSC_CAPS_WindSpeed_IsbL-0925_RLatLon0.03_PT003H.grib2 2026-05-07 06:07 1.8M
20260507T00Z_MSC_CAPS_WindSpeed_IsbL-0950_RLatLon0.03_PT003H.grib2 2026-05-07 06:07 1.9M
20260507T00Z_MSC_CAPS_WindSpeed_IsbL-0970_RLatLon0.03_PT003H.grib2 2026-05-07 06:07 2.0M
20260507T00Z_MSC_CAPS_WindSpeed_IsbL-0985_RLatLon0.03_PT003H.grib2 2026-05-07 06:07 2.0M
20260507T00Z_MSC_CAPS_WindSpeed_IsbL-1000_RLatLon0.03_PT003H.grib2 2026-05-07 06:07 2.0M
20260507T00Z_MSC_CAPS_WindSpeed_IsbL-1015_RLatLon0.03_PT003H.grib2 2026-05-07 06:07 2.0M
20260507T00Z_MSC_CAPS_WindU_AGL-10m_RLatLon0.03_PT003H.grib2 2026-05-07 06:07 1.9M
20260507T00Z_MSC_CAPS_WindU_AGL-120m_RLatLon0.03_PT003H.grib2 2026-05-07 06:07 881K
20260507T00Z_MSC_CAPS_WindU_AGL-40m_RLatLon0.03_PT003H.grib2 2026-05-07 06:07 1.2M
20260507T00Z_MSC_CAPS_WindU_AGL-80m_RLatLon0.03_PT003H.grib2 2026-05-07 06:07 1.1M
20260507T00Z_MSC_CAPS_WindU_IsbL-0050_RLatLon0.03_PT003H.grib2 2026-05-07 06:07 955K
20260507T00Z_MSC_CAPS_WindU_IsbL-0100_RLatLon0.03_PT003H.grib2 2026-05-07 06:07 954K
20260507T00Z_MSC_CAPS_WindU_IsbL-0150_RLatLon0.03_PT003H.grib2 2026-05-07 06:07 914K
20260507T00Z_MSC_CAPS_WindU_IsbL-0175_RLatLon0.03_PT003H.grib2 2026-05-07 06:07 728K
20260507T00Z_MSC_CAPS_WindU_IsbL-0200_RLatLon0.03_PT003H.grib2 2026-05-07 06:07 883K
20260507T00Z_MSC_CAPS_WindU_IsbL-0225_RLatLon0.03_PT003H.grib2 2026-05-07 06:07 899K
20260507T00Z_MSC_CAPS_WindU_IsbL-0250_RLatLon0.03_PT003H.grib2 2026-05-07 06:07 918K
20260507T00Z_MSC_CAPS_WindU_IsbL-0275_RLatLon0.03_PT003H.grib2 2026-05-07 06:07 715K
20260507T00Z_MSC_CAPS_WindU_IsbL-0300_RLatLon0.03_PT003H.grib2 2026-05-07 06:07 721K
20260507T00Z_MSC_CAPS_WindU_IsbL-0350_RLatLon0.03_PT003H.grib2 2026-05-07 06:07 950K
20260507T00Z_MSC_CAPS_WindU_IsbL-0400_RLatLon0.03_PT003H.grib2 2026-05-07 06:07 956K
20260507T00Z_MSC_CAPS_WindU_IsbL-0450_RLatLon0.03_PT003H.grib2 2026-05-07 06:07 966K
20260507T00Z_MSC_CAPS_WindU_IsbL-0500_RLatLon0.03_PT003H.grib2 2026-05-07 06:07 860K
20260507T00Z_MSC_CAPS_WindU_IsbL-0550_RLatLon0.03_PT003H.grib2 2026-05-07 06:07 887K
20260507T00Z_MSC_CAPS_WindU_IsbL-0600_RLatLon0.03_PT003H.grib2 2026-05-07 06:07 917K
20260507T00Z_MSC_CAPS_WindU_IsbL-0650_RLatLon0.03_PT003H.grib2 2026-05-07 06:07 952K
20260507T00Z_MSC_CAPS_WindU_IsbL-0700_RLatLon0.03_PT003H.grib2 2026-05-07 06:07 1.0M
20260507T00Z_MSC_CAPS_WindU_IsbL-0750_RLatLon0.03_PT003H.grib2 2026-05-07 06:07 1.0M
20260507T00Z_MSC_CAPS_WindU_IsbL-0800_RLatLon0.03_PT003H.grib2 2026-05-07 06:07 1.1M
20260507T00Z_MSC_CAPS_WindU_IsbL-0850_RLatLon0.03_PT003H.grib2 2026-05-07 06:07 1.2M
20260507T00Z_MSC_CAPS_WindU_IsbL-0875_RLatLon0.03_PT003H.grib2 2026-05-07 06:07 1.2M
20260507T00Z_MSC_CAPS_WindU_IsbL-0900_RLatLon0.03_PT003H.grib2 2026-05-07 06:07 1.3M
20260507T00Z_MSC_CAPS_WindU_IsbL-0925_RLatLon0.03_PT003H.grib2 2026-05-07 06:07 1.3M
20260507T00Z_MSC_CAPS_WindU_IsbL-0950_RLatLon0.03_PT003H.grib2 2026-05-07 06:07 1.3M
20260507T00Z_MSC_CAPS_WindU_IsbL-0970_RLatLon0.03_PT003H.grib2 2026-05-07 06:07 1.4M
20260507T00Z_MSC_CAPS_WindU_IsbL-0985_RLatLon0.03_PT003H.grib2 2026-05-07 06:07 1.4M
20260507T00Z_MSC_CAPS_WindU_IsbL-1000_RLatLon0.03_PT003H.grib2 2026-05-07 06:07 1.5M
20260507T00Z_MSC_CAPS_WindU_IsbL-1015_RLatLon0.03_PT003H.grib2 2026-05-07 06:07 1.8M
20260507T00Z_MSC_CAPS_WindV_AGL-10m_RLatLon0.03_PT003H.grib2 2026-05-07 06:07 2.0M
20260507T00Z_MSC_CAPS_WindV_AGL-120m_RLatLon0.03_PT003H.grib2 2026-05-07 06:07 1.1M
20260507T00Z_MSC_CAPS_WindV_AGL-40m_RLatLon0.03_PT003H.grib2 2026-05-07 06:07 1.2M
20260507T00Z_MSC_CAPS_WindV_AGL-80m_RLatLon0.03_PT003H.grib2 2026-05-07 06:07 1.1M
20260507T00Z_MSC_CAPS_WindV_IsbL-0050_RLatLon0.03_PT003H.grib2 2026-05-07 06:07 780K
20260507T00Z_MSC_CAPS_WindV_IsbL-0100_RLatLon0.03_PT003H.grib2 2026-05-07 06:07 781K
20260507T00Z_MSC_CAPS_WindV_IsbL-0150_RLatLon0.03_PT003H.grib2 2026-05-07 06:07 907K
20260507T00Z_MSC_CAPS_WindV_IsbL-0175_RLatLon0.03_PT003H.grib2 2026-05-07 06:07 719K
20260507T00Z_MSC_CAPS_WindV_IsbL-0200_RLatLon0.03_PT003H.grib2 2026-05-07 06:07 875K
20260507T00Z_MSC_CAPS_WindV_IsbL-0225_RLatLon0.03_PT003H.grib2 2026-05-07 06:07 893K
20260507T00Z_MSC_CAPS_WindV_IsbL-0250_RLatLon0.03_PT003H.grib2 2026-05-07 06:07 914K
20260507T00Z_MSC_CAPS_WindV_IsbL-0275_RLatLon0.03_PT003H.grib2 2026-05-07 06:07 711K
20260507T00Z_MSC_CAPS_WindV_IsbL-0300_RLatLon0.03_PT003H.grib2 2026-05-07 06:07 931K
20260507T00Z_MSC_CAPS_WindV_IsbL-0350_RLatLon0.03_PT003H.grib2 2026-05-07 06:07 948K
20260507T00Z_MSC_CAPS_WindV_IsbL-0400_RLatLon0.03_PT003H.grib2 2026-05-07 06:07 954K
20260507T00Z_MSC_CAPS_WindV_IsbL-0450_RLatLon0.03_PT003H.grib2 2026-05-07 06:07 963K
20260507T00Z_MSC_CAPS_WindV_IsbL-0500_RLatLon0.03_PT003H.grib2 2026-05-07 06:07 1.0M
20260507T00Z_MSC_CAPS_WindV_IsbL-0550_RLatLon0.03_PT003H.grib2 2026-05-07 06:07 884K
20260507T00Z_MSC_CAPS_WindV_IsbL-0600_RLatLon0.03_PT003H.grib2 2026-05-07 06:07 911K
20260507T00Z_MSC_CAPS_WindV_IsbL-0650_RLatLon0.03_PT003H.grib2 2026-05-07 06:07 945K
20260507T00Z_MSC_CAPS_WindV_IsbL-0700_RLatLon0.03_PT003H.grib2 2026-05-07 06:07 1.0M
20260507T00Z_MSC_CAPS_WindV_IsbL-0750_RLatLon0.03_PT003H.grib2 2026-05-07 06:07 1.0M
20260507T00Z_MSC_CAPS_WindV_IsbL-0800_RLatLon0.03_PT003H.grib2 2026-05-07 06:07 1.1M
20260507T00Z_MSC_CAPS_WindV_IsbL-0850_RLatLon0.03_PT003H.grib2 2026-05-07 06:07 1.2M
20260507T00Z_MSC_CAPS_WindV_IsbL-0875_RLatLon0.03_PT003H.grib2 2026-05-07 06:07 1.2M
20260507T00Z_MSC_CAPS_WindV_IsbL-0900_RLatLon0.03_PT003H.grib2 2026-05-07 06:07 1.2M
20260507T00Z_MSC_CAPS_WindV_IsbL-0925_RLatLon0.03_PT003H.grib2 2026-05-07 06:07 1.3M
20260507T00Z_MSC_CAPS_WindV_IsbL-0950_RLatLon0.03_PT003H.grib2 2026-05-07 06:07 1.3M
20260507T00Z_MSC_CAPS_WindV_IsbL-0970_RLatLon0.03_PT003H.grib2 2026-05-07 06:07 1.4M
20260507T00Z_MSC_CAPS_WindV_IsbL-0985_RLatLon0.03_PT003H.grib2 2026-05-07 06:07 1.4M
20260507T00Z_MSC_CAPS_WindV_IsbL-1000_RLatLon0.03_PT003H.grib2 2026-05-07 06:07 1.8M
20260507T00Z_MSC_CAPS_WindV_IsbL-1015_RLatLon0.03_PT003H.grib2 2026-05-07 06:07 2.0M